sat.trackr.live / text

‹ back to catalog

STARLINK-30519

NORAD 57985 · 2023-151X

PAYLOAD ACTIVE UNKNOWN

§ Identity

Operator
Country
US
Launch date
2023-09-30
Launch site
AFETR
Launch vehicle
Mass (kg)
RCS (m²)

Purposes: comms

External: N2YO · Heavens-Above · Gunter

§ Orbital elements

Epoch: 2026-09-20T21:13:12.838368Z

Period
94.27 min
Inclination
43.0041°
Eccentricity
0.0001169
Mean motion
15.27578907 rev/d
Perigee alt
482.3 km
Apogee alt
483.9 km
Semi-major
6,861.2 km
B*
2.2968e-5
RAAN
328.5156°
Arg perigee
276.4016°
Mean anomaly
83.6702°
Rev number
16,538

§ Raw data

STARLINK-305191 57985U 23151X   26263.88417637  .00000370  00000+0  22968-4 0  99992 57985  43.0041 328.5156 0001169 276.4016  83.6702 15.27578907165381

JSON: /api/v1/satellites/57985 · /tle

For live sub-satellite position, see the globe view (requires WebGL).

§ Visibility from observer

Set your observer location to see the next 7 days of passes ≥ 10°. The values pass through the URL so the page stays shareable.

No JS? Fill the form by hand. The geolocation button needs JavaScript.